sat.trackr.live / text

‹ back to catalog

STARLINK-3729

NORAD 52135 · 2022-029AZ

PAYLOAD ACTIVE UNKNOWN

§ Identity

Operator
Country
US
Launch date
2022-03-19
Launch site
AFETR
Launch vehicle
Mass (kg)
RCS (m²)

Purposes: comms

External: N2YO · Heavens-Above · Gunter

§ Orbital elements

Epoch: 2026-06-14T22:18:54.365760Z

Period
87.53 min
Inclination
53.2051°
Eccentricity
0.0008413
Mean motion
16.45121191 rev/d
Perigee alt
146.7 km
Apogee alt
157.7 km
Semi-major
6,530.4 km
B*
2.3679e-4
RAAN
325.0076°
Arg perigee
284.3859°
Mean anomaly
75.6258°
Rev number
23,600

§ Raw data

STARLINK-37291 52135U 22029AZ  26165.92979590  .08952084  12525-4  23679-3 0  99962 52135  53.2051 325.0076 0008413 284.3859  75.6258 16.45121191236007

JSON: /api/v1/satellites/52135 · /tle

For live sub-satellite position, see the globe view (requires WebGL).

§ Visibility from observer

Set your observer location to see the next 7 days of passes ≥ 10°. The values pass through the URL so the page stays shareable.

No JS? Fill the form by hand. The geolocation button needs JavaScript.